Time,TemperatureF,DewpointF,PressureIn,WindDirection,WindDirectionDegrees,WindSpeedMPH,WindSpeedGustMPH,Humidity,HourlyPrecipIn,Conditions,Clouds,dailyrainin,SolarRadiationWatts/m^2,SoftwareType,DateUTC
2013-02-18 00:00:00,15.0,8.0,-100.00,SSE,157,4.0,-999.0,72,-99.99,,,-99.99,0.000000,,2013-02-18 05:00:00,
2013-02-18 00:42:00,15.0,8.0,-100.00,SSE,157,4.0,-999.0,72,-99.99,,,-99.99,0.000000,,2013-02-18 05:42:00,
2013-02-18 00:52:00,15.0,8.0,-100.00,SSE,157,4.0,-999.0,72,-99.99,,,-99.99,0.000000,,2013-02-18 05:52:00,
2013-02-18 01:00:00,16.0,9.0,-100.00,SE,135,5.0,-999.0,71,-99.99,,,-99.99,0.000000,,2013-02-18 06:00:00,
2013-02-18 01:42:00,16.0,9.0,-100.00,SE,135,5.0,-999.0,71,-99.99,,,-99.99,0.000000,,2013-02-18 06:42:00,
2013-02-18 01:52:00,16.0,9.0,-100.00,SE,135,5.0,-999.0,71,-99.99,,,-99.99,0.000000,,2013-02-18 06:52:00,
2013-02-18 02:00:00,17.0,9.0,-100.00,SE,135,6.0,-999.0,71,-99.99,,,-99.99,0.000000,,2013-02-18 07:00:00,
2013-02-18 02:42:00,17.0,9.0,-100.00,SE,135,6.0,-999.0,71,-99.99,,,-99.99,0.000000,,2013-02-18 07:42:00,
2013-02-18 02:52:00,17.0,9.0,-100.00,SE,135,6.0,-999.0,71,-99.99,,,-99.99,0.000000,,2013-02-18 07:52:00,
2013-02-18 03:00:00,18.0,11.0,-100.00,SSE,157,6.0,-999.0,71,-99.99,,,-99.99,0.000000,,2013-02-18 08:00:00,
2013-02-18 03:42:00,18.0,11.0,-100.00,SSE,157,6.0,-999.0,71,-99.99,,,-99.99,0.000000,,2013-02-18 08:42:00,
2013-02-18 03:52:00,18.0,11.0,-100.00,SSE,157,6.0,-999.0,71,-99.99,,,-99.99,0.000000,,2013-02-18 08:52:00,
2013-02-18 04:00:00,19.0,11.0,-100.00,SE,135,6.0,-999.0,71,-99.99,,,-99.99,0.000000,,2013-02-18 09:00:00,
2013-02-18 04:42:00,19.0,11.0,-100.00,SE,135,6.0,-999.0,71,-99.99,,,-99.99,0.000000,,2013-02-18 09:42:00,
2013-02-18 04:52:00,19.0,11.0,-100.00,SE,135,6.0,-999.0,71,-99.99,,,-99.99,0.000000,,2013-02-18 09:52:00,
2013-02-18 05:00:00,19.0,12.0,-100.00,SE,135,8.0,-999.0,71,-99.99,,,-99.99,0.000000,,2013-02-18 10:00:00,
2013-02-18 05:43:00,19.0,12.0,-100.00,SE,135,8.0,-999.0,71,-99.99,,,-99.99,0.000000,,2013-02-18 10:43:00,
2013-02-18 05:53:00,19.0,12.0,-100.00,SE,135,8.0,-999.0,71,-99.99,,,-99.99,0.000000,,2013-02-18 10:53:00,
2013-02-18 06:00:00,20.0,13.0,-100.00,SE,135,8.0,-999.0,71,-99.99,,,-99.99,0.000000,,2013-02-18 11:00:00,
2013-02-18 06:43:00,20.0,13.0,-100.00,SE,135,8.0,-999.0,71,-99.99,,,-99.99,0.000000,,2013-02-18 11:43:00,
2013-02-18 06:53:00,20.0,13.0,-100.00,SE,135,8.0,-999.0,71,-99.99,,,-99.99,0.000000,,2013-02-18 11:53:00,
2013-02-18 07:00:00,21.0,13.0,-100.00,SE,135,10.0,-999.0,69,-99.99,,,-99.99,0.000000,,2013-02-18 12:00:00,
2013-02-18 07:42:00,21.0,13.0,-100.00,SE,135,10.0,-999.0,69,-99.99,,,-99.99,0.000000,,2013-02-18 12:42:00,
2013-02-18 07:54:00,21.0,13.0,-100.00,SE,135,10.0,-999.0,69,-99.99,,,-99.99,0.000000,,2013-02-18 12:54:00,
2013-02-18 08:00:00,20.0,12.0,-100.00,SE,135,10.0,-999.0,69,-99.99,,,-99.99,8.120000,,2013-02-18 13:00:00,
2013-02-18 08:42:00,20.0,12.0,-100.00,SE,135,10.0,-999.0,69,-99.99,,,-99.99,8.120000,,2013-02-18 13:42:00,
2013-02-18 08:53:00,20.0,12.0,-100.00,SE,135,10.0,-999.0,69,-99.99,,,-99.99,8.120000,,2013-02-18 13:53:00,
2013-02-18 09:00:00,22.0,13.0,-100.00,SE,135,10.0,-999.0,66,-99.99,,,-99.99,116.000000,,2013-02-18 14:00:00,
2013-02-18 09:42:00,22.0,13.0,-100.00,SE,135,10.0,-999.0,66,-99.99,,,-99.99,116.000000,,2013-02-18 14:42:00,
2013-02-18 09:54:00,22.0,13.0,-100.00,SE,135,10.0,-999.0,66,-99.99,,,-99.99,116.000000,,2013-02-18 14:54:00,
2013-02-18 10:00:00,25.0,14.0,-100.00,SSE,157,12.0,-999.0,62,-99.99,,,-99.99,230.839996,,2013-02-18 15:00:00,
2013-02-18 10:42:00,25.0,14.0,-100.00,SSE,157,12.0,-999.0,62,-99.99,,,-99.99,230.839996,,2013-02-18 15:42:00,
2013-02-18 10:53:00,25.0,14.0,-100.00,SSE,157,12.0,-999.0,62,-99.99,,,-99.99,230.839996,,2013-02-18 15:53:00,
2013-02-18 11:00:00,29.0,16.0,-100.00,SSE,157,13.0,-999.0,58,-99.99,,,-99.99,373.519989,,2013-02-18 16:00:00,
2013-02-18 11:43:00,29.0,16.0,-100.00,SSE,157,13.0,-999.0,58,-99.99,,,-99.99,373.519989,,2013-02-18 16:43:00,
2013-02-18 11:53:00,29.0,16.0,-100.00,SSE,157,13.0,-999.0,58,-99.99,,,-99.99,373.519989,,2013-02-18 16:53:00,
2013-02-18 12:00:00,32.0,18.0,-100.00,SSE,157,13.0,-999.0,56,-99.99,,,-99.99,458.200012,,2013-02-18 17:00:00,
2013-02-18 12:43:00,32.0,18.0,-100.00,SSE,157,13.0,-999.0,56,-99.99,,,-99.99,458.200012,,2013-02-18 17:43:00,
2013-02-18 12:53:00,32.0,18.0,-100.00,SSE,157,13.0,-999.0,56,-99.99,,,-99.99,458.200012,,2013-02-18 17:53:00,
2013-02-18 13:00:00,34.0,21.0,-100.00,SSE,157,13.0,-999.0,56,-99.99,,,-99.99,403.679993,,2013-02-18 18:00:00,
2013-02-18 13:43:00,34.0,21.0,-100.00,SSE,157,13.0,-999.0,56,-99.99,,,-99.99,403.679993,,2013-02-18 18:43:00,
2013-02-18 13:53:00,34.0,21.0,-100.00,SSE,157,13.0,-999.0,56,-99.99,,,-99.99,403.679993,,2013-02-18 18:53:00,
2013-02-18 14:00:00,36.0,23.0,-100.00,SSE,157,12.0,-999.0,58,-99.99,,,-99.99,348.000000,,2013-02-18 19:00:00,
2013-02-18 14:43:00,36.0,23.0,-100.00,SSE,157,12.0,-999.0,58,-99.99,,,-99.99,348.000000,,2013-02-18 19:43:00,
2013-02-18 14:53:00,36.0,23.0,-100.00,SSE,157,12.0,-999.0,58,-99.99,,,-99.99,348.000000,,2013-02-18 19:53:00,
2013-02-18 16:00:00,39.0,26.0,-100.00,SE,135,8.0,-999.0,59,-99.99,,,-99.99,263.320007,,2013-02-18 21:00:00,
2013-02-18 16:43:00,39.0,26.0,-100.00,SE,135,8.0,-999.0,59,-99.99,,,-99.99,263.320007,,2013-02-18 21:43:00,
2013-02-18 16:53:00,39.0,26.0,-100.00,SE,135,8.0,-999.0,59,-99.99,,,-99.99,263.320007,,2013-02-18 21:53:00,
2013-02-18 18:00:00,39.0,29.0,-100.00,SE,135,6.0,-999.0,66,-99.99,,,-99.99,12.760000,,2013-02-18 23:00:00,
2013-02-18 18:43:00,39.0,29.0,-100.00,SE,135,6.0,-999.0,66,-99.99,,,-99.99,12.760000,,2013-02-18 23:43:00,
2013-02-18 18:54:00,39.0,29.0,-100.00,SE,135,6.0,-999.0,66,-99.99,,,-99.99,12.760000,,2013-02-18 23:54:00,
2013-02-18 19:00:00,39.0,31.0,-100.00,SE,135,6.0,-999.0,71,-99.99,,,-99.99,0.000000,,2013-02-19 00:00:00,
2013-02-18 19:44:00,39.0,31.0,-100.00,SE,135,6.0,-999.0,71,-99.99,,,-99.99,0.000000,,2013-02-19 00:44:00,
2013-02-18 19:55:00,39.0,31.0,-100.00,SE,135,6.0,-999.0,71,-99.99,,,-99.99,0.000000,,2013-02-19 00:55:00,
2013-02-18 20:00:00,39.0,35.0,-100.00,SSE,157,8.0,-999.0,84,-99.99,,,-99.99,0.000000,,2013-02-19 01:00:00,
2013-02-18 20:45:00,39.0,35.0,-100.00,SSE,157,8.0,-999.0,84,-99.99,,,-99.99,0.000000,,2013-02-19 01:45:00,
2013-02-18 20:57:00,39.0,35.0,-100.00,SSE,157,8.0,-999.0,84,-99.99,,,-99.99,0.000000,,2013-02-19 01:57:00,
2013-02-18 21:00:00,40.0,38.0,-100.00,SSE,157,11.0,-999.0,90,-99.99,,,-99.99,0.000000,,2013-02-19 02:00:00,
2013-02-18 21:44:00,40.0,38.0,-100.00,SSE,157,11.0,-999.0,90,-99.99,,,-99.99,0.000000,,2013-02-19 02:44:00,
2013-02-18 21:56:00,40.0,38.0,-100.00,SSE,157,11.0,-999.0,90,-99.99,,,-99.99,0.000000,,2013-02-19 02:56:00,
2013-02-18 22:00:00,41.0,39.0,-100.00,SSE,157,12.0,-999.0,92,0.01,,,-99.99,0.000000,,2013-02-19 03:00:00,
2013-02-18 22:45:00,41.0,39.0,-100.00,SSE,157,12.0,-999.0,92,0.01,,,-99.99,0.000000,,2013-02-19 03:45:00,
2013-02-18 22:55:00,41.0,39.0,-100.00,SSE,157,12.0,-999.0,92,0.01,,,-99.99,0.000000,,2013-02-19 03:55:00,
2013-02-18 23:00:00,41.0,39.0,-100.00,South,180,11.0,-999.0,90,0.02,,,-99.99,0.000000,,2013-02-19 04:00:00,
2013-02-18 23:45:00,41.0,39.0,-100.00,South,180,11.0,-999.0,90,0.02,,,-99.99,0.000000,,2013-02-19 04:45:00,
2013-02-18 23:56:00,41.0,39.0,-100.00,South,180,11.0,-999.0,90,0.02,,,-99.99,0.000000,,2013-02-19 04:56:00,